| time (UTC) | temp C | wind direction | speed KPH | gust KPH | rain 1hr cm | rain 24hr cm | rain mn cm | humidity % | barometer mb |
| 20260504050501 | 8 | 246 | 9.7 | 17.7 | 0.00 | 0.00 | 0.00 | 62 | 1005.3 |
| 20260504050006 | 8 | 252 | 11.3 | 19.3 | 0.00 | 0.00 | 0.00 | 62 | 1005.4 |
| 20260504045504 | 8 | 259 | 9.7 | 19.3 | 0.00 | 0.00 | 0.00 | 61 | 1005.3 |
| 20260504045004 | 8 | 238 | 9.7 | 19.3 | 0.00 | 0.00 | 0.00 | 61 | 1005.3 |
| 20260504044504 | 8 | 240 | 9.7 | 19.3 | 0.00 | 0.00 | 0.00 | 61 | 1005.3 |
| 20260504044005 | 8 | 232 | 9.7 | 17.7 | 0.00 | 0.00 | 0.00 | 60 | 1005.4 |
| 20260504043504 | 8 | 234 | 6.4 | 16.1 | 0.00 | 0.00 | 0.00 | 60 | 1005.4 |
| 20260504043004 | 8 | 250 | 8.0 | 14.5 | 0.00 | 0.00 | 0.00 | 60 | 1005.4 |
| 20260504042504 | 8 | 223 | 8.0 | 17.7 | 0.00 | 0.00 | 0.00 | 59 | 1005.4 |
| 20260504042004 | 8 | 226 | 6.4 | 17.7 | 0.00 | 0.00 | 0.00 | 59 | 1005.5 |
| 20260504041504 | 8 | 229 | 6.4 | 20.9 | 0.00 | 0.00 | 0.00 | 59 | 1005.5 |
| 20260504041005 | 8 | 262 | 8.0 | 20.9 | 0.00 | 0.00 | 0.00 | 59 | 1005.5 |
| 20260504040504 | 8 | 241 | 8.0 | 17.7 | 0.00 | 0.00 | 0.00 | 58 | 1005.6 |
| 20260504040008 | 8 | 45 | 8.0 | 16.1 | 0.00 | 0.00 | 0.00 | 59 | 1005.5 |
| 20260504035004 | 7 | 238 | 6.4 | 16.1 | 0.00 | 0.00 | 0.00 | 60 | 1005.5 |
| 20260504034004 | 8 | 238 | 6.4 | 16.1 | 0.00 | 0.00 | 0.00 | 60 | 1005.6 |
| 20260504033504 | 8 | 246 | 6.4 | 17.7 | 0.00 | 0.00 | 0.00 | 60 | 1005.6 |
| 20260504033005 | 7 | 240 | 6.4 | 12.9 | 0.00 | 0.00 | 0.00 | 60 | 1005.6 |
| 20260504032505 | 8 | 271 | 8.0 | 14.5 | 0.00 | 0.00 | 0.00 | 61 | 1005.6 |
| 20260504032006 | 8 | 217 | 9.7 | 14.5 | 0.00 | 0.00 | 0.00 | 61 | 1005.6 |
| 20260504031005 | 8 | 230 | 6.4 | 16.1 | 0.00 | 0.00 | 0.00 | 60 | 1005.7 |
| 20260504030504 | 8 | 214 | 6.4 | 16.1 | 0.00 | 0.00 | 0.00 | 60 | 1005.7 |
| 20260504025505 | 8 | 227 | 4.8 | 9.7 | 0.00 | 0.00 | 0.00 | 60 | 1005.8 |
| 20260504025004 | 8 | 205 | 4.8 | 9.7 | 0.00 | 0.00 | 0.00 | 60 | 1005.8 |
| 20260504024505 | 8 | 202 | 6.4 | 11.3 | 0.00 | 0.00 | 0.00 | 60 | 1005.9 |
| 20260504024004 | 8 | 229 | 6.4 | 12.9 | 0.00 | 0.00 | 0.00 | 60 | 1005.9 |
| 20260504023504 | 8 | 225 | 6.4 | 12.9 | 0.00 | 0.00 | 0.00 | 59 | 1005.9 |
| 20260504023006 | 8 | 220 | 6.4 | 11.3 | 0.00 | 0.00 | 0.00 | 58 | 1005.9 |
| 20260504022504 | 8 | 199 | 4.8 | 11.3 | 0.00 | 0.00 | 0.00 | 58 | 1005.9 |
| 20260504022004 | 8 | 213 | 6.4 | 11.3 | 0.00 | 0.00 | 0.00 | 57 | 1006.0 |
| 20260504021004 | 9 | 219 | 8.0 | 12.9 | 0.00 | 0.00 | 0.00 | 56 | 1006.0 |
| 20260504020006 | 9 | 209 | 8.0 | 16.1 | 0.00 | 0.00 | 0.00 | 55 | 1006.0 |
| 20260504015504 | 9 | 234 | 8.0 | 16.1 | 0.00 | 0.00 | 0.00 | 54 | 1006.1 |
| 20260504015004 | 9 | 213 | 8.0 | 16.1 | 0.00 | 0.00 | 0.00 | 54 | 1006.1 |
| 20260504014505 | 9 | 220 | 8.0 | 16.1 | 0.00 | 0.00 | 0.00 | 53 | 1006.2 |
| 20260504014004 | 9 | 213 | 8.0 | 14.5 | 0.00 | 0.00 | 0.00 | 53 | 1006.3 |
| 20260504013505 | 9 | 227 | 6.4 | 14.5 | 0.00 | 0.00 | 0.00 | 53 | 1006.3 |
| 20260504013004 | 10 | 193 | 6.4 | 11.3 | 0.00 | 0.00 | 0.00 | 53 | 1006.2 |
| 20260504012504 | 10 | 229 | 6.4 | 11.3 | 0.00 | 0.00 | 0.00 | 52 | 1006.3 |
| 20260504012004 | 10 | 227 | 8.0 | 14.5 | 0.00 | 0.00 | 0.00 | 51 | 1006.4 |
| 20260504011504 | 10 | 219 | 8.0 | 14.5 | 0.00 | 0.00 | 0.00 | 49 | 1006.3 |
| 20260504011004 | 10 | 186 | 9.7 | 14.5 | 0.00 | 0.00 | 0.00 | 48 | 1006.3 |
| 20260504010505 | 10 | 229 | 11.3 | 17.7 | 0.00 | 0.00 | 0.00 | 47 | 1006.3 |
| 20260504010006 | 10 | 209 | 11.3 | 17.7 | 0.00 | 0.00 | 0.00 | 47 | 1006.3 |
| 20260504005504 | 10 | 198 | 11.3 | 24.1 | 0.00 | 0.00 | 0.00 | 46 | 1006.3 |
| 20260504005004 | 10 | 267 | 11.3 | 24.1 | 0.00 | 0.00 | 0.00 | 46 | 1006.2 |
| 20260504004503 | 10 | 249 | 8.0 | 20.9 | 0.00 | 0.00 | 0.00 | 46 | 1006.2 |
| 20260504004003 | 10 | 244 | 8.0 | 17.7 | 0.00 | 0.00 | 0.00 | 46 | 1006.1 |
| 20260504003503 | 10 | 225 | 8.0 | 17.7 | 0.00 | 0.00 | 0.00 | 46 | 1006.1 |
| 20260504003004 | 11 | 227 | 9.7 | 16.1 | 0.00 | 0.00 | 0.00 | 45 | 1006.1 |
| 20260504002503 | 11 | 252 | 9.7 | 17.7 | 0.00 | 0.00 | 0.00 | 46 | 1006.1 |
| 20260504002003 | 11 | 221 | 9.7 | 17.7 | 0.00 | 0.00 | 0.00 | 46 | 1006.0 |
| 20260504001504 | 11 | 237 | 9.7 | 19.3 | 0.00 | 0.00 | 0.00 | 46 | 1006.1 |
| 20260504001003 | 11 | 246 | 9.7 | 19.3 | 0.00 | 0.00 | 0.00 | 46 | 1006.1 |
| 20260504000503 | 11 | 230 | 9.7 | 17.7 | 0.00 | 0.00 | 0.00 | 47 | 1006.2 |
| 20260504000005 | 11 | 219 | 9.7 | 16.1 | 0.00 | 0.00 | 0.00 | 46 | 1006.1 |
| 20260503235503 | 11 | 223 | 11.3 | 22.5 | 0.00 | 0.00 | 0.00 | 45 | 1006.1 |
| 20260503234503 | 11 | 235 | 11.3 | 24.1 | 0.00 | 0.00 | 0.00 | 43 | 1006.1 |
| 20260503234003 | 12 | 220 | 8.0 | 19.3 | 0.00 | 0.00 | 0.00 | 41 | 1006.1 |
| 20260503233503 | 12 | 198 | 6.4 | 12.9 | 0.00 | 0.00 | 0.00 | 39 | 1006.1 |
| 20260503233004 | 12 | 221 | 6.4 | 12.9 | 0.00 | 0.00 | 0.00 | 38 | 1006.1 |
| 20260503232503 | 12 | 241 | 6.4 | 14.5 | 0.00 | 0.00 | 0.00 | 37 | 1006.1 |
| 20260503232003 | 12 | 212 | 6.4 | 14.5 | 0.00 | 0.00 | 0.00 | 36 | 1006.0 |
| 20260503231003 | 12 | 252 | 8.0 | 14.5 | 0.00 | 0.00 | 0.00 | 36 | 1006.0 |
| 20260503230503 | 12 | 247 | 8.0 | 14.5 | 0.00 | 0.00 | 0.00 | 36 | 1006.0 |
| 20260503230006 | 12 | 256 | 8.0 | 19.3 | 0.00 | 0.00 | 0.00 | 37 | 1005.9 |
| 20260503225503 | 12 | 262 | 9.7 | 19.3 | 0.00 | 0.00 | 0.00 | 36 | 1005.9 |
| 20260503225003 | 12 | 217 | 9.7 | 16.1 | 0.00 | 0.00 | 0.00 | 36 | 1005.9 |
| 20260503224003 | 12 | 246 | 8.0 | 17.7 | 0.00 | 0.00 | 0.00 | 36 | 1005.8 |
| 20260503223503 | 12 | 252 | 8.0 | 16.1 | 0.00 | 0.00 | 0.00 | 36 | 1005.9 |
| 20260503223003 | 12 | 283 | 11.3 | 19.3 | 0.00 | 0.00 | 0.00 | 36 | 1005.8 |
| 20260503222504 | 12 | 221 | 12.9 | 24.1 | 0.00 | 0.00 | 0.00 | 36 | 1005.9 |
| 20260503222003 | 12 | 254 | 11.3 | 24.1 | 0.00 | 0.00 | 0.00 | 36 | 1006.0 |
| 20260503221504 | 12 | 240 | 11.3 | 24.1 | 0.00 | 0.00 | 0.00 | 36 | 1005.9 |
| 20260503221003 | 12 | 277 | 11.3 | 22.5 | 0.00 | 0.00 | 0.00 | 35 | 1005.9 |
| 20260503220503 | 13 | 259 | 11.3 | 19.3 | 0.00 | 0.00 | 0.00 | 36 | 1006.0 |
| 20260503215503 | 13 | 319 | 14.5 | 25.7 | 0.00 | 0.00 | 0.00 | 34 | 1005.8 |
| 20260503215003 | 12 | 275 | 17.7 | 35.4 | 0.00 | 0.00 | 0.00 | 35 | 1006.0 |
| 20260503214504 | 12 | 283 | 16.1 | 35.4 | 0.00 | 0.00 | 0.00 | 35 | 1006.0 |
| 20260503214003 | 13 | 302 | 12.9 | 25.7 | 0.00 | 0.00 | 0.00 | 35 | 1005.8 |
| 20260503213503 | 12 | 306 | 14.5 | 22.5 | 0.00 | 0.00 | 0.00 | 35 | 1005.8 |
| 20260503213004 | 12 | 239 | 14.5 | 24.1 | 0.00 | 0.00 | 0.00 | 36 | 1005.9 |
| 20260503212503 | 12 | 268 | 14.5 | 27.4 | 0.00 | 0.00 | 0.00 | 35 | 1005.9 |
| 20260503211503 | 12 | 284 | 14.5 | 29.0 | 0.00 | 0.00 | 0.00 | 36 | 1006.0 |
| 20260503211003 | 13 | 281 | 16.1 | 29.0 | 0.00 | 0.00 | 0.00 | 34 | 1005.9 |
| 20260503210503 | 13 | 252 | 17.7 | 38.6 | 0.00 | 0.00 | 0.00 | 35 | 1005.9 |
| 20260503210006 | 13 | 312 | 16.1 | 38.6 | 0.00 | 0.00 | 0.00 | 33 | 1005.8 |
| 20260503205503 | 13 | 232 | 14.5 | 25.7 | 0.00 | 0.00 | 0.00 | 34 | 1005.8 |
| 20260503205004 | 13 | 248 | 16.1 | 27.4 | 0.00 | 0.00 | 0.00 | 36 | 1005.9 |
| 20260503204503 | 13 | 263 | 14.5 | 27.4 | 0.00 | 0.00 | 0.00 | 35 | 1005.9 |
| 20260503203503 | 12 | 256 | 17.7 | 37.0 | 0.00 | 0.00 | 0.00 | 37 | 1006.1 |
| 20260503203003 | 12 | 253 | 16.1 | 29.0 | 0.00 | 0.00 | 0.00 | 37 | 1006.3 |
| 20260503202505 | 12 | 260 | 17.7 | 29.0 | 0.00 | 0.00 | 0.00 | 37 | 1006.3 |
| 20260503200503 | 12 | 249 | 14.5 | 29.0 | 0.00 | 0.00 | 0.00 | 37 | 1006.3 |
| 20260503200005 | 12 | 253 | 14.5 | 29.0 | 0.00 | 0.00 | 0.00 | 39 | 1006.4 |
| 20260503195504 | 12 | 269 | 16.1 | 25.7 | 0.00 | 0.00 | 0.00 | 39 | 1006.4 |
| 20260503195003 | 12 | 222 | 14.5 | 30.6 | 0.00 | 0.00 | 0.00 | 37 | 1006.5 |
| 20260503194503 | 12 | 336 | 12.9 | 30.6 | 0.00 | 0.00 | 0.00 | 39 | 1006.5 |
| 20260503194003 | 11 | 236 | 12.9 | 20.9 | 0.00 | 0.00 | 0.00 | 40 | 1006.6 |
| 20260503193503 | 12 | 252 | 14.5 | 32.2 | 0.00 | 0.00 | 0.00 | 39 | 1006.7 |
| 20260503193004 | 12 | 294 | 16.1 | 32.2 | 0.00 | 0.00 | 0.00 | 40 | 1006.8 |
| 20260503192503 | 12 | 259 | 14.5 | 32.2 | 0.00 | 0.00 | 0.00 | 39 | 1006.8 |
| 20260503192003 | 12 | 240 | 12.9 | 25.7 | 0.00 | 0.00 | 0.00 | 41 | 1006.9 |
| 20260503191503 | 12 | 297 | 11.3 | 20.9 | 0.00 | 0.00 | 0.00 | 41 | 1007.0 |
| 20260503191003 | 12 | 289 | 11.3 | 24.1 | 0.00 | 0.00 | 0.00 | 39 | 1007.1 |
| 20260503190503 | 12 | 311 | 9.7 | 19.3 | 0.00 | 0.00 | 0.00 | 42 | 1007.1 |
| 20260503190005 | 11 | 244 | 8.0 | 20.9 | 0.00 | 0.00 | 0.00 | 43 | 1007.1 |
| 20260503185503 | 11 | 270 | 9.7 | 19.3 | 0.00 | 0.00 | 0.00 | 42 | 1007.2 |
| 20260503185003 | 11 | 345 | 11.3 | 24.1 | 0.00 | 0.00 | 0.00 | 42 | 1007.4 |
| 20260503183504 | 11 | 259 | 11.3 | 27.4 | 0.00 | 0.00 | 0.00 | 43 | 1007.4 |
| 20260503183004 | 11 | 338 | 9.7 | 20.9 | 0.00 | 0.00 | 0.00 | 44 | 1007.4 |
| 20260503182503 | 10 | 330 | 12.9 | 22.5 | 0.00 | 0.00 | 0.00 | 45 | 1007.5 |
| 20260503182003 | 11 | 240 | 12.9 | 29.0 | 0.00 | 0.00 | 0.00 | 43 | 1007.7 |
| 20260503181504 | 11 | 215 | 11.3 | 29.0 | 0.00 | 0.00 | 0.00 | 43 | 1007.6 |
| 20260503181003 | 11 | 273 | 11.3 | 20.9 | 0.00 | 0.00 | 0.00 | 44 | 1007.6 |
| 20260503180503 | 11 | 282 | 14.5 | 22.5 | 0.00 | 0.00 | 0.00 | 43 | 1007.7 |
| 20260503180005 | 11 | 210 | 12.9 | 22.5 | 0.00 | 0.00 | 0.00 | 44 | 1007.8 |
| 20260503175503 | 10 | 267 | 11.3 | 25.7 | 0.00 | 0.00 | 0.00 | 44 | 1007.8 |
| 20260503175003 | 10 | 276 | 12.9 | 25.7 | 0.00 | 0.00 | 0.00 | 44 | 1007.7 |
| 20260503174504 | 10 | 275 | 11.3 | 22.5 | 0.00 | 0.00 | 0.00 | 44 | 1007.9 |
| 20260503174003 | 10 | 327 | 9.7 | 17.7 | 0.00 | 0.00 | 0.00 | 46 | 1008.0 |
| 20260503173504 | 10 | 281 | 9.7 | 17.7 | 0.00 | 0.00 | 0.00 | 46 | 1008.0 |
| 20260503173003 | 10 | 291 | 11.3 | 20.9 | 0.00 | 0.00 | 0.00 | 46 | 1008.1 |
| 20260503172503 | 10 | 246 | 12.9 | 20.9 | 0.00 | 0.00 | 0.00 | 47 | 1008.2 |
| 20260503172002 | 10 | 281 | 12.9 | 20.9 | 0.00 | 0.00 | 0.00 | 47 | 1008.1 |
| 20260503171504 | 10 | 297 | 12.9 | 25.7 | 0.00 | 0.00 | 0.00 | 46 | 1008.2 |
| 20260503171003 | 10 | 292 | 12.9 | 25.7 | 0.00 | 0.00 | 0.00 | 46 | 1008.4 |
| 20260503170503 | 10 | 303 | 11.3 | 22.5 | 0.00 | 0.00 | 0.00 | 45 | 1008.4 |
| 20260503151003 | 8 | 194 | 6.4 | 16.1 | 0.00 | 0.05 | 0.00 | 54 | 1009.8 |
| 20260503131001 | 6 | 230 | 3.2 | 6.4 | 0.00 | 0.05 | 0.00 | 68 | 1011.0 |
| 20260503130501 | 6 | 166 | 3.2 | 8.0 | 0.00 | 0.05 | 0.00 | 68 | 1011.0 |
| 20260503110501 | 3 | 355 | 0.0 | 0.0 | 0.00 | 0.05 | 0.00 | 88 | 1010.7 |
| 20260503090501 | 3 | 322 | 3.2 | 4.8 | 0.00 | 0.05 | 0.00 | 87 | 1010.6 |
| 20260503081502 | 3 | 348 | 1.6 | 3.2 | 0.00 | 0.08 | 0.00 | 87 | 1010.9 |
| 20260503072501 | 3 | 334 | 3.2 | 4.8 | 0.00 | 0.08 | 0.00 | 87 | 1010.9 |